Location: Fonsommes
(49.9024°N, 3.4005°E)
Time: 01:10:58
(UTC+00:00)

Daily predictions for brighter satellites

Satellite Brightness Start Highest point End
(mag) Time Altitude Azimuth Time Altitude Azimuth Time Altitude Azimuth
Cosmos 2297 Rocket 3.1 00:03:38 10° NNW 00:09:06 47° NE 00:14:33 10° SE
Cosmos 1782 2.8 00:06:56 10° N 00:10:36 62° ENE 00:11:51 37° SE
Cosmos 1726 Rocket 4.4 00:08:55 10° N 00:13:14 45° ENE 00:15:53 22° SE
Cosmos 2112 Rocket 4.3 00:09:27 10° NNW 00:14:42 67° ENE 00:18:23 20° SE
SL-08 ROCKET BODY 4.4 00:11:57 28° SSW 00:15:21 81° W 00:21:20 10° N
BREEZE-M DEB (TANK) 3.8 00:12:02 10° WSW 00:16:13 85° S 00:32:57 10° E
Cosmos 1818 4.3 00:12:30 10° NW 00:17:25 35° WSW 00:19:09 28° SSW
Cosmos 2058 2.8 00:18:00 39° S 00:19:21 71° E 00:23:18 10° NNE
Cosmos 44 2.9 00:19:22 33° SW 00:21:17 85° SE 00:25:43 10° NE
Cosmos 2228 4.4 00:21:01 10° NNW 00:24:30 26° W 00:25:54 22° WSW
Cosmos 1680 Rocket 3.4 00:24:53 10° NNW 00:30:10 82° WSW 00:33:13 26° SSE
RESURS DK-1 2.9 00:28:02 10° NNW 00:31:59 55° NE 00:34:58 16° SE
Cosmos 1697 Rocket 4.3 00:32:50 15° SE 00:35:55 23° ESE 00:40:18 10° NE
H-2A R/B 2.4 00:34:14 29° SE 00:35:58 65° ENE 00:39:45 10° N
Cosmos 1656 3.9 00:33:45 28° S 00:36:38 59° ESE 00:42:06 10° NE
Cosmos 923 Rocket 4.2 00:32:29 10° NNW 00:37:33 54° WSW 00:39:56 29° S
SeaSat 1 3.5 00:33:25 10° ESE 00:38:03 45° NE 00:42:44 10° NNW
Cosmos 2227 Rocket 3.4 00:35:11 10° NNW 00:40:33 40° NE 00:45:53 10° ESE
Cosmos 1400 Rocket 3.7 00:38:58 10° NNW 00:42:28 33° W 00:43:29 28° SW
Cosmos 1356 Rocket 3.9 00:41:10 10° N 00:45:03 51° ENE 00:47:29 21° SE
BlueWalker 3 2.7 00:41:54 10° WNW 00:45:29 50° N 00:49:04 10° E
ATLAS 2AS CENTAUR R/B 4.3 00:39:33 10° NW 00:45:48 36° NNE 00:51:55 10° E
Cosmos 1602 3.4 00:46:12 41° SSE 00:47:05 62° E 00:50:17 10° NNE
Cosmos-2242 4.1 00:45:54 10° N 00:49:50 38° ENE 00:53:05 14° SE
Cosmos 1937 Rocket 3.7 00:47:15 24° SW 00:50:16 63° WNW 00:55:23 10° NNE
ISS -3.4 00:50:09 10° WNW 00:53:30 67° N 00:56:51 10° E
H-2A R/B 4.3 00:52:26 10° NE 00:55:07 16° E 00:57:48 10° SE
Cosmos 2315 Rocket 4.1 00:50:53 10° NNW 00:57:12 67° W 01:01:14 23° S
Cosmos 1441 Rocket 3.8 00:58:03 27° SSE 00:59:31 43° E 01:02:51 10° NNE
Landsat 4 2.8 01:03:33 50° S 01:04:09 75° WSW 01:06:59 10° NNW
Cosmos 1933 3.2 01:01:27 10° NNW 01:05:19 70° W 01:07:02 31° S
DNEPR-1 R/B 4.4 01:07:36 10° WNW 01:11:18 29° WSW 01:12:13 27° SW
Meteor 2-3 Rocket 3.8 01:10:11 22° S 01:14:01 79° E 01:19:51 10° NNE
CZ-2C R/B 3.0 01:11:02 24° SSW 01:14:09 51° W 01:19:35 10° NNW
Cosmos 1048 Rocket 4.0 01:16:36 10° NNW 01:22:00 85° WSW 01:26:52 13° SSE
Cosmos 2058 Rocket 3.0 01:18:17 10° NNW 01:22:42 75° W 01:25:27 23° S
Cosmos 1315 Rocket 2.6 01:19:09 10° NNW 01:22:58 79° WSW 01:25:06 25° S
Cosmos 1655 Rocket 4.3 01:20:19 21° SSW 01:24:38 61° WNW 01:30:59 10° N
IDEFIX/ARIANE 42P 2.8 01:23:21 10° NNE 01:28:32 66° ESE 01:32:15 19° S
Lacrosse 5 rocket 3.2 01:31:11 10° NW 01:34:45 32° NNE 01:38:19 10° ENE
CZ-2C R/B 3.6 01:31:23 10° N 01:36:00 43° WNW 01:39:09 18° SW
SL-08 R/B 4.5 01:33:23 18° S 01:38:05 83° E 01:44:14 10° N
Cosmos 2219 4.2 01:33:34 10° NNW 01:39:06 48° NE 01:44:35 10° SE
Meteor 1-26 Rocket 4.1 01:34:32 10° NNW 01:39:58 80° W 01:44:35 14° S
Cosmos 2360 4.3 01:36:32 19° SW 01:40:39 73° WNW 01:46:23 10° NNE
CZ-4C R/B 3.4 01:37:49 10° W 01:42:14 36° NNW 01:47:49 10° NE
ADEOS II 3.7 01:40:02 10° NE 01:44:32 28° E 01:49:01 10° SSE
Cosmos 1867 4.2 01:40:43 13° WSW 01:45:29 51° NW 01:50:51 10° NE
Cosmos 2263 Rocket 2.7 01:40:50 10° NNW 01:46:28 61° ENE 01:52:01 10° SE
SL-16 R/B 4.3 01:41:54 10° ESE 01:47:19 33° ENE 01:52:48 10° N
Gbstr 26 Del rocket 4.1 01:44:49 10° WNW 01:51:05 77° SSW 01:58:31 10° ESE
Cosmos 1238 Rocket 4.4 01:46:06 10° N 01:51:14 48° ENE 01:56:16 10° SSE
Cosmos 2297 Rocket 2.9 01:47:56 10° NW 01:53:01 35° WSW 01:56:44 17° SSW
CZ-2D R/B 2.9 01:50:58 10° NNE 01:56:03 46° E 02:01:03 10° S
MOZ.5/SAFIR/RUBIN 5/SL-8 3.8 01:56:34 14° S 02:00:25 60° WSW 02:05:03 10° NNW
BREEZE-M DEB (TANK) 2.0 01:59:48 10° W 02:02:13 35° SSW 02:04:18 10° SE
Meteor 2-6 Rocket 4.3 02:00:23 10° NNW 02:06:04 89° W 02:11:54 10° S
Cosmos 1758 Rocket 3.5 02:05:25 16° SSW 02:08:50 78° W 02:13:16 10° N
Cosmos 1602 Rocket 3.6 02:05:12 13° S 02:08:54 75° E 02:13:14 10° NNE
RESURS DK-1 3.9 02:06:23 10° WNW 02:09:04 18° WSW 02:10:16 16° SW
Cosmos 1980 Rocket 2.6 02:05:14 13° S 02:10:06 55° ESE 02:15:35 10° NE
Resurs 1-4 Rocket 2.4 02:05:05 10° NNE 02:10:23 66° ESE 02:15:34 10° S
H-2A R/B 4.3 02:09:35 11° WSW 02:10:45 12° W 02:12:18 10° WNW
Tiangong -0.1 02:10:34 14° S 02:11:08 14° SSE 02:13:01 10° SE
Nadezhda 1 Rocket 4.0 02:06:15 10° NNW 02:12:31 72° W 02:18:39 10° S
ATLAS 5 CENTAUR R/B 4.4 02:09:47 10° NNW 02:12:51 20° NNE 02:16:24 10° ENE
Cosmos 1626 Rocket 3.8 02:12:06 16° SSW 02:15:23 53° WNW 02:19:42 10° N
SeaSat 1 3.1 02:11:35 12° S 02:15:32 34° WSW 02:20:00 10° NW
Cosmos 1745 Rocket 4.1 02:12:26 12° S 02:18:28 85° W 02:24:53 10° N
H-2A R/B 4.2 02:15:39 10° NE 02:19:20 20° E 02:22:56 10° SE
Cosmos 1697 Rocket 2.9 02:14:32 14° SW 02:19:22 67° WNW 02:25:03 10° NNE
Cosmos 614 Rocket 3.9 02:17:33 10° NNW 02:22:36 69° WSW 02:27:35 10° SSE
FENGYUN 3A 3.7 02:17:32 10° NNE 02:22:56 75° WNW 02:27:59 12° SSW
BlueWalker 3 1.7 02:19:41 10° WNW 02:23:21 75° SSW 02:26:59 10° ESE
Cosmos 1346 Rocket 4.4 02:20:43 10° SSE 02:23:54 28° E 02:27:06 10° NNE
Cosmos 2227 Rocket 2.6 02:19:18 10° NW 02:24:38 42° WSW 02:29:54 10° S
MSX 4.2 02:20:41 10° N 02:26:13 52° WNW 02:31:23 12° SW
Cosmos-2242 4.3 02:23:24 10° NW 02:26:43 23° W 02:29:26 13° SW
ISS -3.6 02:26:56 10° WNW 02:30:11 49° SSW 02:33:27 10° SE
H-2A R/B 2.2 02:26:47 10° N 02:30:52 59° WNW 02:34:41 12° SSW
Okean 1 3.5 02:27:17 10° NNW 02:30:53 46° W 02:34:28 10° SSW
Cosmos 1709 Rocket 4.1 02:26:24 10° S 02:32:47 89° WNW 02:39:11 10° N
ATLAS 2AS CENTAUR R/B 2.7 02:30:36 10° NW 02:37:26 86° SW 02:44:08 10° SE
USA 290 2.2 02:34:58 10° NNW 02:38:17 81° WSW 02:41:34 10° SSE
Okean 1-7 Rocket 3.6 02:35:08 10° SSW 02:39:32 70° WNW 02:44:02 10° N
SAR-Lupe-3 4.0 02:36:40 10° SSE 02:39:36 86° WSW 02:42:33 10° NNW
NPP 4.4 02:37:29 10° N 02:42:31 41° WNW 02:47:31 10° SW
ALOS 2.3 02:39:09 10° NNE 02:43:45 83° ESE 02:48:19 10° SSW
Cosmos 1844 Rocket 4.2 02:40:44 10° NNW 02:46:07 42° NE 02:51:25 10° ESE
Cosmos 2221 2.9 02:43:29 10° NNW 02:47:34 45° W 02:51:37 10° SSW
Cosmos 1743 2.9 02:46:37 10° S 02:49:54 57° E 02:53:13 10° NNE
Cosmos 1125 Rocket 4.1 02:46:28 10° SW 02:51:34 48° WNW 02:56:41 10° NNE
Cosmos 192 4.4 02:46:56 10° SSW 02:51:52 76° WNW 02:56:49 10° NNE
Cosmos 2298 Rocket 4.1 02:48:58 10° SSW 02:54:17 84° ESE 02:59:38 10° NNE
Cosmos 2151 3.2 02:52:05 10° SSW 02:56:10 54° WNW 03:00:15 10° N
Cosmos 1953 Rocket 3.7 02:58:31 10° S 03:02:53 80° E 03:07:15 10° NNE
Cosmos 2322 Rocket 4.3 03:00:18 10° SSE 03:04:32 22° ESE 03:08:46 10° NE
Meteor 1-19 Rocket 4.3 03:01:00 10° NNW 03:06:20 60° W 03:11:46 10° S
Cosmos 2369 3.8 03:01:57 10° SSW 03:07:37 89° ESE 03:13:19 10° NNE
CZ-3 R/B 4.4 02:55:34 10° WSW 03:24:47 34° SSW 03:34:46 10° SE
